HST
1 20580U 90037B   24106.89656719  .00008963  00000-0  43514-3 0  9994
2 20580  28.4693  42.1843 0002593  76.9923 283.0959 15.16725948667560
ISS (ZARYA)
1 25544U 98067A   24107.35220508  .00018399  00000-0  32655-3 0  9993
2 25544  51.6391 262.0127 0004622  66.1655  16.0574 15.50259838448959
CXO
1 25867U 99040B   24109.68742308  .00000930  00000-0  00000+0 0  9995
2 25867  39.8987 159.5880 8946259 292.2469 359.9679  0.37811468 25493